EW8549 Weather Reports


Display with metric or nautical units.
time (UTC)temp
F
wind
direction
speed
MPH
gust
MPH
rain 1hr
in
rain 24hr
in
rain mn
in
humidity
%
barometer
mb
20260906153058 89 212 0.0 8.0 0.00 0.00 0.00 58 1010.5
20260906151551 88 240 0.0 0.0 0.00 0.00 0.00 55 1010.5
20260906150052 87 148 0.0 0.0 0.00 0.00 0.00 52 1010.4
20260906144545 86 280 0.0 0.0 0.00 0.00 0.00 51 1010.6
20260906143038 85 233 0.0 0.0 0.00 0.00 0.00 38 1010.5
20260906141536 84 219 0.0 0.0 0.00 0.00 0.00 26 1010.7
20260906140036 83 242 0.0 0.0 0.00 0.00 0.00 16 1010.6
20260906134524 83 148 0.0 0.0 0.00 0.00 0.00 17 1010.9
20260906133019 82 102 0.0 0.0 0.00 0.00 0.00 5 1010.9
20260906131514 80 107 0.0 0.0 0.00 0.00 0.00 1 1011.1
20260906130018 79 104 0.0 0.0 0.00 0.00 0.00 1 1011.1
20260906124505 78 96 0.0 0.0 0.00 0.00 0.00 1 1011.3
20260906123001 77 92 0.0 6.0 0.00 0.00 0.00 1 1011.1
20260906121606 75 113 4.0 9.0 0.00 0.00 0.00 1 1011.2
20260906120052 75 90 0.0 0.0 0.00 0.00 0.00 1 1010.5
20260906114557 75 90 0.0 0.0 0.00 0.00 0.00 1 1010.2
20260906113053 75 90 0.0 0.0 0.00 0.00 0.00 1 1010.0
20260906111539 75 90 0.0 0.0 0.00 0.00 0.00 1 1009.8
20260906110034 75 90 0.0 0.0 0.00 0.00 0.00 1 1009.8
20260906104531 75 130 0.0 0.0 0.00 0.00 0.00 1 1009.7
20260906103026 75 131 0.0 0.0 0.00 0.00 0.00 1 1009.5
20260906101522 76 130 0.0 0.0 0.00 0.00 0.00 1 1009.6
20260906100019 76 130 0.0 0.0 0.00 0.00 0.00 1 1009.5
20260906094517 76 131 0.0 0.0 0.00 0.00 0.00 1 1009.5
20260906093009 76 131 0.0 0.0 0.00 0.00 0.00 1 1009.2
20260906091508 76 131 0.0 0.0 0.00 0.00 0.00 1 1009.2
20260906090107 76 131 0.0 0.0 0.00 0.00 0.00 1 1009.1
20260906084555 76 131 0.0 0.0 0.00 0.00 0.00 1 1009.1
20260906083051 76 131 0.0 0.0 0.00 0.00 0.00 1 1009.2
20260906081551 76 131 0.0 0.0 0.00 0.00 0.00 1 1009.1
20260906080045 76 131 0.0 0.0 0.00 0.00 0.00 1 1009.3
20260906074553 76 131 0.0 0.0 0.00 0.00 0.00 1 1009.4
20260906073035 77 131 0.0 0.0 0.00 0.00 0.00 1 1009.6
20260906071530 77 224 0.0 0.0 0.00 0.00 0.00 1 1009.6
20260906070026 77 224 0.0 0.0 0.00 0.00 0.00 1 1009.4
20260906064522 77 224 0.0 0.0 0.00 0.00 0.00 1 1009.4
20260906063018 77 224 0.0 0.0 0.00 0.00 0.00 1 1009.4
20260906061514 77 224 0.0 0.0 0.00 0.00 0.00 1 1009.3
20260906060016 77 238 0.0 0.0 0.00 0.00 0.00 1 1009.4
20260906054505 77 238 0.0 0.0 0.00 0.00 0.00 1 1009.6
20260906053101 77 238 0.0 0.0 0.00 0.00 0.00 1 1009.9
20260906051603 77 238 0.0 0.0 0.00 0.00 0.00 1 1009.7
20260906050055 77 238 0.0 0.0 0.00 0.00 0.00 1 1009.7
20260906044551 77 342 0.0 0.0 0.00 0.00 0.00 1 1009.7
20260906043043 77 342 0.0 0.0 0.00 0.00 0.00 1 1009.8
20260906041542 78 342 0.0 0.0 0.00 0.00 0.00 1 1009.8
20260906040034 78 342 0.0 0.0 0.00 0.00 0.00 1 1009.7
20260906034530 79 342 0.0 0.0 0.00 0.00 0.00 1 1009.7
20260906033038 80 342 0.0 0.0 0.00 0.00 0.00 1 1009.6
20260906031523 81 342 0.0 0.0 0.00 0.00 0.00 15 1009.7
20260906030016 83 342 0.0 0.0 0.00 0.00 0.00 30 1009.6
20260906024513 84 205 0.0 0.0 0.00 0.00 0.00 46 1009.7
20260906023007 84 205 0.0 0.0 0.00 0.00 0.00 51 1009.3
20260906021503 85 205 0.0 0.0 0.00 0.00 0.00 54 1009.1
20260906020104 86 231 0.0 0.0 0.00 0.00 0.00 56 1008.9
20260906014555 86 236 0.0 0.0 0.00 0.00 0.00 58 1008.7
20260906013050 87 157 0.0 0.0 0.00 0.00 0.00 60 1008.6
20260906011547 87 257 0.0 0.0 0.00 0.00 0.00 61 1008.4
20260906010041 88 187 0.0 0.0 0.00 0.00 0.00 61 1008.2
20260906004537 89 249 0.0 0.0 0.00 0.00 0.00 61 1008.0
20260906003033 90 233 0.0 0.0 0.00 0.00 0.00 60 1008.0
20260906001528 91 137 0.0 0.0 0.00 0.00 0.00 60 1007.8
20260906000023 94 137 0.0 0.0 0.00 0.00 0.00 55 1007.7
20260905234519 98 137 0.0 0.0 0.00 0.00 0.00 47 1007.8
20260905233015 98 127 0.0 0.0 0.00 0.00 0.00 45 1007.7
20260905231511 98 117 0.0 0.0 0.00 0.00 0.00 43 1007.6
20260905230006 98 94 0.0 0.0 0.00 0.00 0.00 43 1007.6
20260905224504 99 100 0.0 0.0 0.00 0.00 0.00 42 1007.6
20260905223058 99 83 0.0 7.0 0.00 0.00 0.00 43 1007.6
20260905221601 99 111 0.0 0.0 0.00 0.00 0.00 40 1007.8
20260905214545 100 119 0.0 0.0 0.00 0.00 0.00 41 1007.9
20260905213040 99 61 0.0 0.0 0.00 0.00 0.00 42 1008.0
20260905211535 99 98 0.0 0.0 0.00 0.00 0.00 43 1008.1
20260905210030 99 290 0.0 0.0 0.00 0.00 0.00 41 1008.3
20260905204528 98 96 0.0 1.0 0.00 0.00 0.00 42 1008.5
20260905203024 100 108 0.0 0.0 0.00 0.00 0.00 42 1008.7
20260905201517 99 88 0.0 9.0 0.00 0.00 0.00 44 1009.0
20260905200012 98 103 0.0 12.0 0.00 0.00 0.00 42 1009.0
20260905194508 98 153 0.0 7.0 0.00 0.00 0.00 41 1009.2
20260905193004 99 105 0.0 7.0 0.00 0.00 0.00 42 1009.3
20260905191559 100 59 0.0 2.0 0.00 0.00 0.00 41 1009.5
20260905190055 99 109 0.0 1.0 0.00 0.00 0.00 44 1009.7
20260905184550 98 322 0.0 1.0 0.00 0.00 0.00 44 1010.0
20260905183045 97 75 0.0 0.0 0.00 0.00 0.00 45 1010.4
20260905181559 98 104 0.0 4.0 0.00 0.00 0.00 46 1010.4